Home > Weather > San Bernardino > Past weeks

Flag for U.S.A. Weather for the Past 2 Weeks in San Bernardino, California, U.S.A.

Now
73 °F

Clear.


Feels Like: 74 °F
Forecast: 54 / 85 °F
Wind: 6 mph from East

Location: Riverside Municipal Airport

Current Time: Feb 9, 2016 at 8:49:52 PM

Latest Report: Feb 9, 2016 at 7:53 PM


Visibility: 10 mi

Pressure: 30.07 "Hg

Humidity: 15%

Dew point: 22 °F

Location of San BernardinoLocation

Historic Weather in San Bernardino — Graph

°F

San Bernardino Temperature Yesterday

Maximum temperature yesterday: 82 °F (at 1:53 PM)
Minimum temperature yesterday: 60 °F (at 11:53 PM)
Average temperature yesterday: 74 °F

High & Low Weather Summary for the Past Weeks

 TemperatureHumidityPressure
High88 °F (Feb 9, 2:53 PM)90% (Jan 30, 10:53 PM)30.34 "Hg (Jan 30, 10:53 PM)
Low37 °F (Feb 2, 3:53 AM)8% (Feb 7, 2:53 PM)29.58 "Hg (Jan 31, 1:53 PM)
Average59 °F36%30.12 "Hg
* Reported Jan 25 6:53 PM — Feb 9 6:53 PM, San Bernardino, Weather by CustomWeather, © 2016

Note: Actual official high and low records may vary slightly from our data, if they occured in-between our weather recording intervals... More about our weather records

Advertising

San Bernardino Weather History for the Previous 24 Hours

 ConditionsComfort  
Time TempWeatherWind HumidityBarometerVisibility
6:53 PM
Tue, Feb 9
77 °FClear.7 mph12%30.08 "Hg10 mi
5:53 PM81 °FClear.8 mph10%30.07 "Hg10 mi
4:53 PM84 °FSunny.8 mph10%30.06 "Hg10 mi
3:53 PM87 °FSunny.7 mph9%30.04 "Hg10 mi
2:53 PM88 °FSunny.9 mph9%30.04 "Hg10 mi
1:53 PM87 °FSunny.8 mph9%30.05 "Hg10 mi
12:53 PM86 °FSunny.12 mph9%30.08 "Hg10 mi
11:53 AM85 °FSunny.10 mph10%30.11 "Hg10 mi
10:53 AM82 °FSunny.10 mph12%30.14 "Hg10 mi
9:53 AM78 °FSunny.8 mph15%30.16 "Hg10 mi
8:53 AM69 °FSunny.7 mph23%30.16 "Hg10 mi
7:53 AM61 °FSunny.6 mph27%30.15 "Hg10 mi
6:53 AM55 °FSunny.6 mph34%30.14 "Hg10 mi
5:53 AM58 °FClear.9 mph30%30.12 "Hg10 mi
4:53 AM58 °FClear.9 mph30%30.12 "Hg10 mi
3:53 AM61 °FClear.6 mph25%30.11 "Hg10 mi
2:53 AM62 °FClear.6 mph24%30.11 "Hg10 mi
1:53 AM57 °FClear.7 mph33%30.12 "Hg10 mi
12:53 AM58 °FClear.7 mph32%30.12 "Hg10 mi
11:53 PM
Mon, Feb 8
60 °FClear.6 mph28%30.13 "Hg10 mi
10:53 PM67 °FClear.6 mph20%30.14 "Hg10 mi
9:53 PM66 °FClear.3 mph20%30.14 "Hg10 mi
8:53 PM69 °FClear.5 mph15%30.12 "Hg10 mi
Weather by CustomWeather, © 2016

See weather overviewHow to use our weather pages